User: anonymous   Login
Location: Melbourne
(37.8170°S, 144.9670°E)
Time: 18:46:00
(UTC+10:00)
Language:

ISS - Orbit

View from above orbital plane
View from above orbital plane
View from above satellite
View from above satellite

Ground track
Ground track

The orbit data is extracted from the following two-line orbital elements,

1 25544U 98067A   18117.27318686  .00016717  00000-0  10270-3 0  9028
2 25544  51.6406 272.5302 0003267  17.3894 342.7370 15.54156579 30596
Epoch (UTC): 27 April 2018 06:33:23
Eccentricity: 0.0003267
inclination: 51.6406°
perigee height: 402 km
apogee height: 407 km
right ascension of ascending node: 272.5302°
argument of perigee: 17.3894°
revolutions per day: 15.54156579
mean anomaly at epoch: 342.7370°
orbit number at epoch: 3059

The dashed part of the orbit path shows where the satellite is in the earth's shadow,  

DLR